• Em Portugal
  • Lista de países
  • Para 7 dias
  • Temperatura da água
  • Mapas de satélite
  • Mapa do tempo
  • Widgets de tempo
  • user-avatar
    Iniciar Sessão

    Previsão horária em Seki

    Hoje, 23 Abril, Segunda-feira

    Tempo Temperatura Precipitação Vento Pressão Humidade
    00:00 +10°C° 0 mm 0 m/s 747 mmHg 65%
    01:00 +9°C° 0 mm 0 m/s 747 mmHg 65%
    02:00 +9°C° 0 mm 0 m/s 747 mmHg 67%
    03:00 +8°C° 0 mm 0 m/s 747 mmHg 68%
    04:00 +8°C° 0 mm 0 m/s 746 mmHg 69%
    05:00 +10°C° 0 mm 0 m/s 747 mmHg 64%
    06:00 +12°C° 0 mm 0 m/s 747 mmHg 60%
    07:00 +13°C° 0 mm 0 m/s 747 mmHg 55%
    08:00 +16°C° 0 mm 1 m/s 746 mmHg 50%
    09:00 +19°C° 0 mm 1 m/s 746 mmHg 46%
    10:00 +21°C° 0 mm 1 m/s 746 mmHg 41%
    11:00 +21°C° 0 mm 2 m/s 746 mmHg 39%
    12:00 +23°C° 0 mm 2 m/s 745 mmHg 37%
    13:00 +24°C° 0 mm 2 m/s 745 mmHg 35%
    14:00 +24°C° 0 mm 2 m/s 745 mmHg 36%
    15:00 +24°C° 0 mm 2 m/s 744 mmHg 38%
    16:00 +24°C° 0 mm 2 m/s 744 mmHg 39%
    17:00 +21°C° 0,6 mm 2 m/s 744 mmHg 48%
    18:00 +19°C° 0,6 mm 2 m/s 743 mmHg 58%
    19:00 +17°C° 0,6 mm 2 m/s 743 mmHg 67%
    20:00 +17°C° 0,6 mm 3 m/s 743 mmHg 73%
    21:00 +16°C° 0,6 mm 3 m/s 743 mmHg 79%
    22:00 +16°C° 0,6 mm 3 m/s 743 mmHg 84%
    23:00 +16°C° 0,2 mm 3 m/s 744 mmHg 87%

    Amanhã, 24 Abril, Terça-feira

    Tempo Temperatura Precipitação Vento Pressão Humidade
    00:00 +16°C° 0,2 mm 3 m/s 744 mmHg 89%
    01:00 +14°C° 0,2 mm 3 m/s 744 mmHg 91%
    02:00 +14°C° 0 mm 3 m/s 744 mmHg 92%
    03:00 +13°C° 0 mm 3 m/s 745 mmHg 94%
    04:00 +13°C° 0 mm 4 m/s 745 mmHg 95%
    05:00 +13°C° 0 mm 4 m/s 745 mmHg 90%
    06:00 +14°C° 0 mm 4 m/s 746 mmHg 85%
    07:00 +14°C° 0 mm 4 m/s 747 mmHg 80%
    08:00 +15°C° 0 mm 4 m/s 747 mmHg 72%
    09:00 +18°C° 0 mm 4 m/s 747 mmHg 64%
    10:00 +19°C° 0 mm 4 m/s 747 mmHg 56%
    11:00 +19°C° 0 mm 4 m/s 747 mmHg 54%
    12:00 +20°C° 0 mm 4 m/s 747 mmHg 52%
    13:00 +20°C° 0 mm 4 m/s 747 mmHg 51%
    14:00 +20°C° 0 mm 4 m/s 746 mmHg 50%
    15:00 +20°C° 0 mm 4 m/s 746 mmHg 49%
    16:00 +21°C° 0 mm 4 m/s 746 mmHg 49%
    17:00 +19°C° 0 mm 3 m/s 746 mmHg 54%
    18:00 +17°C° 0 mm 2 m/s 746 mmHg 59%
    19:00 +16°C° 0 mm 2 m/s 746 mmHg 64%
    20:00 +15°C° 0 mm 2 m/s 746 mmHg 66%
    21:00 +15°C° 0 mm 2 m/s 746 mmHg 67%
    22:00 +14°C° 0 mm 2 m/s 746 mmHg 68%
    23:00 +14°C° 0 mm 2 m/s 746 mmHg 70%

    Depois de amanhã, 25 Abril, Quarta-feira

    Tempo Temperatura Precipitação Vento Pressão Humidade
    00:00 +13°C° 0 mm 2 m/s 746 mmHg 72%
    01:00 +12°C° 0 mm 3 m/s 746 mmHg 74%
    02:00 +12°C° 0 mm 3 m/s 746 mmHg 77%
    03:00 +12°C° 0 mm 2 m/s 746 mmHg 80%
    04:00 +12°C° 0 mm 2 m/s 746 mmHg 83%
    05:00 +13°C° 0 mm 2 m/s 746 mmHg 79%
    06:00 +14°C° 0 mm 2 m/s 746 mmHg 75%
    07:00 +16°C° 0 mm 2 m/s 746 mmHg 71%
    08:00 +18°C° 0 mm 3 m/s 746 mmHg 63%
    09:00 +19°C° 0 mm 3 m/s 746 mmHg 56%
    10:00 +21°C° 0 mm 4 m/s 745 mmHg 49%
    11:00 +22°C° 0 mm 4 m/s 745 mmHg 47%
    12:00 +23°C° 0 mm 5 m/s 744 mmHg 45%
    13:00 +24°C° 0 mm 6 m/s 744 mmHg 43%
    14:00 +25°C° 0 mm 5 m/s 743 mmHg 44%
    15:00 +25°C° 0 mm 5 m/s 743 mmHg 45%
    16:00 +25°C° 0 mm 5 m/s 742 mmHg 47%
    17:00 +22°C° 0 mm 4 m/s 742 mmHg 51%
    18:00 +21°C° 0 mm 4 m/s 742 mmHg 56%
    19:00 +19°C° 0 mm 3 m/s 742 mmHg 61%
    20:00 +18°C° 0,2 mm 3 m/s 742 mmHg 67%
    21:00 +17°C° 0,2 mm 3 m/s 742 mmHg 72%
    22:00 +16°C° 0,2 mm 3 m/s 743 mmHg 78%
    23:00 +16°C° 0,1 mm 3 m/s 743 mmHg 81%

    26 Abril, Quinta-feira

    Tempo Temperatura Precipitação Vento Pressão Humidade
    00:00 +14°C° 0,1 mm 3 m/s 743 mmHg 84%
    01:00 +15°C° 0,1 mm 2 m/s 743 mmHg 87%
    02:00 +14°C° 0 mm 2 m/s 743 mmHg 89%
    03:00 +13°C° 0 mm 3 m/s 743 mmHg 92%
    04:00 +12°C° 0 mm 3 m/s 743 mmHg 94%
    05:00 +13°C° 0 mm 3 m/s 744 mmHg 89%
    06:00 +14°C° 0 mm 4 m/s 744 mmHg 84%
    07:00 +15°C° 0 mm 4 m/s 745 mmHg 79%
    08:00 +17°C° 0,1 mm 4 m/s 745 mmHg 74%
    09:00 +18°C° 0,1 mm 4 m/s 745 mmHg 68%
    10:00 +19°C° 0,1 mm 4 m/s 745 mmHg 62%
    11:00 +19°C° 0,1 mm 4 m/s 745 mmHg 59%
    12:00 +20°C° 0,1 mm 4 m/s 745 mmHg 56%
    13:00 +21°C° 0,1 mm 4 m/s 745 mmHg 52%
    14:00 +20°C° 0,1 mm 3 m/s 744 mmHg 55%
    15:00 +20°C° 0,1 mm 3 m/s 744 mmHg 57%
    16:00 +19°C° 0,1 mm 3 m/s 744 mmHg 60%
    17:00 +18°C° 0,4 mm 3 m/s 745 mmHg 66%
    18:00 +16°C° 0,4 mm 3 m/s 745 mmHg 73%
    19:00 +14°C° 0,4 mm 3 m/s 745 mmHg 80%
    20:00 +13°C° 0,3 mm 3 m/s 746 mmHg 82%
    21:00 +13°C° 0,3 mm 3 m/s 746 mmHg 84%
    22:00 +12°C° 0,3 mm 3 m/s 747 mmHg 86%
    23:00 +12°C° 0,2 mm 3 m/s 747 mmHg 86%

    27 Abril, Sexta-feira

    Tempo Temperatura Precipitação Vento Pressão Humidade
    00:00 +11°C° 0,2 mm 3 m/s 747 mmHg 86%
    01:00 +11°C° 0,2 mm 3 m/s 747 mmHg 86%
    02:00 +12°C° 0,1 mm 2 m/s 747 mmHg 86%
    03:00 +10°C° 0,1 mm 2 m/s 748 mmHg 86%
    04:00 +9°C° 0,1 mm 2 m/s 748 mmHg 86%
    05:00 +10°C° 0 mm 2 m/s 748 mmHg 81%
    06:00 +12°C° 0 mm 2 m/s 748 mmHg 75%
    07:00 +12°C° 0 mm 2 m/s 749 mmHg 69%
    08:00 +12°C° 0 mm 3 m/s 749 mmHg 62%
    09:00 +14°C° 0 mm 3 m/s 749 mmHg 54%
    10:00 +16°C° 0 mm 3 m/s 749 mmHg 46%
    11:00 +16°C° 0 mm 3 m/s 749 mmHg 44%
    12:00 +17°C° 0 mm 3 m/s 749 mmHg 42%
    13:00 +18°C° 0 mm 3 m/s 749 mmHg 39%
    14:00 +17°C° 0 mm 3 m/s 748 mmHg 40%
    15:00 +17°C° 0 mm 2 m/s 748 mmHg 40%
    16:00 +17°C° 0 mm 2 m/s 748 mmHg 41%
    17:00 +16°C° 0 mm 2 m/s 748 mmHg 46%
    18:00 +14°C° 0 mm 2 m/s 748 mmHg 51%
    19:00 +13°C° 0 mm 1 m/s 748 mmHg 56%
    20:00 +12°C° 0 mm 2 m/s 749 mmHg 58%
    21:00 +10°C° 0 mm 2 m/s 749 mmHg 61%
    22:00 +9°C° 0 mm 2 m/s 749 mmHg 63%
    23:00 +9°C° 0 mm 2 m/s 749 mmHg 65%

    28 Abril, Sábado

    Tempo Temperatura Precipitação Vento Pressão Humidade
    00:00 +9°C° 0 mm 2 m/s 749 mmHg 67%
    01:00 +8°C° 0 mm 2 m/s 749 mmHg 69%
    02:00 +8°C° 0 mm 2 m/s 749 mmHg 70%
    03:00 +8°C° 0 mm 3 m/s 749 mmHg 71%
    04:00 +8°C° 0 mm 3 m/s 749 mmHg 72%
    05:00 +8°C° 0 mm 4 m/s 748 mmHg 69%
    06:00 +11°C° 0 mm 4 m/s 748 mmHg 65%
    07:00 +13°C° 0 mm 5 m/s 748 mmHg 62%
    08:00 +14°C° 0 mm 5 m/s 748 mmHg 60%
    09:00 +16°C° 0 mm 5 m/s 748 mmHg 59%
    10:00 +19°C° 0 mm 5 m/s 747 mmHg 57%
    11:00 +20°C° 0 mm 5 m/s 747 mmHg 56%
    12:00 +22°C° 0 mm 5 m/s 746 mmHg 54%
    13:00 +23°C° 0 mm 5 m/s 746 mmHg 53%
    14:00 +23°C° 0,1 mm 5 m/s 745 mmHg 55%
    15:00 +23°C° 0,1 mm 5 m/s 745 mmHg 57%
    16:00 +23°C° 0,1 mm 5 m/s 745 mmHg 59%
    17:00 +21°C° 0,2 mm 5 m/s 744 mmHg 67%
    18:00 +20°C° 0,2 mm 4 m/s 744 mmHg 74%
    19:00 +18°C° 0,2 mm 4 m/s 744 mmHg 81%
    20:00 +17°C° 0 mm 4 m/s 744 mmHg 83%
    21:00 +17°C° 0 mm 4 m/s 744 mmHg 85%
    22:00 +15°C° 0 mm 4 m/s 744 mmHg 87%
    23:00 +16°C° 0 mm 3 m/s 744 mmHg 89%
    Mostrar mais